• In Deutschland
  • Länderverzeichnis
  • Für 7 Tage
  • Wassertemperatur
  • Satellitenkarten
  • Wetterkarte
  • Widgets
  • user-avatar
    Anmelden

    Stündliche Wetter Sangerhausen

    Heute, 27 April, Freitag

    Zeit Temperatur Niederschläge Wind Luftdruck Luftfeuchtigkeit
    00:00 +5°C° 0 mm 2 m/S 747 mmHg 84%
    01:00 +5°C° 0 mm 2 m/S 747 mmHg 85%
    02:00 +4°C° 0 mm 2 m/S 747 mmHg 86%
    03:00 +4°C° 0 mm 2 m/S 747 mmHg 86%
    04:00 +4°C° 0 mm 2 m/S 747 mmHg 87%
    05:00 +5°C° 0 mm 2 m/S 747 mmHg 84%
    06:00 +6°C° 0 mm 2 m/S 747 mmHg 80%
    07:00 +7°C° 0 mm 2 m/S 746 mmHg 77%
    08:00 +9°C° 0 mm 2 m/S 746 mmHg 70%
    09:00 +12°C° 0 mm 2 m/S 746 mmHg 62%
    10:00 +14°C° 0 mm 2 m/S 746 mmHg 55%
    11:00 +15°C° 0 mm 2 m/S 745 mmHg 52%
    12:00 +15°C° 0 mm 2 m/S 745 mmHg 49%
    13:00 +16°C° 0 mm 3 m/S 744 mmHg 47%
    14:00 +17°C° 0 mm 3 m/S 744 mmHg 47%
    15:00 +17°C° 0 mm 3 m/S 743 mmHg 47%
    16:00 +17°C° 0 mm 3 m/S 742 mmHg 48%
    17:00 +16°C° 0 mm 3 m/S 742 mmHg 55%
    18:00 +15°C° 0 mm 2 m/S 742 mmHg 63%
    19:00 +13°C° 0 mm 2 m/S 741 mmHg 70%
    20:00 +12°C° 0 mm 2 m/S 741 mmHg 73%
    21:00 +10°C° 0 mm 2 m/S 741 mmHg 76%
    22:00 +9°C° 0 mm 2 m/S 741 mmHg 79%
    23:00 +9°C° 0 mm 2 m/S 741 mmHg 78%

    Morgen, 28 April, Samstag

    Zeit Temperatur Niederschläge Wind Luftdruck Luftfeuchtigkeit
    00:00 +9°C° 0 mm 2 m/S 741 mmHg 77%
    01:00 +9°C° 0 mm 2 m/S 741 mmHg 77%
    02:00 +9°C° 0 mm 3 m/S 741 mmHg 80%
    03:00 +9°C° 0 mm 3 m/S 741 mmHg 83%
    04:00 +8°C° 0 mm 4 m/S 741 mmHg 86%
    05:00 +10°C° 0 mm 4 m/S 741 mmHg 84%
    06:00 +10°C° 0 mm 5 m/S 742 mmHg 82%
    07:00 +12°C° 0 mm 5 m/S 742 mmHg 81%
    08:00 +13°C° 0 mm 5 m/S 742 mmHg 74%
    09:00 +14°C° 0 mm 6 m/S 743 mmHg 67%
    10:00 +15°C° 0 mm 6 m/S 743 mmHg 60%
    11:00 +16°C° 0 mm 6 m/S 743 mmHg 58%
    12:00 +17°C° 0 mm 6 m/S 743 mmHg 55%
    13:00 +17°C° 0 mm 5 m/S 743 mmHg 53%
    14:00 +19°C° 0 mm 5 m/S 743 mmHg 53%
    15:00 +19°C° 0 mm 4 m/S 742 mmHg 52%
    16:00 +19°C° 0 mm 4 m/S 742 mmHg 52%
    17:00 +18°C° 0 mm 3 m/S 742 mmHg 58%
    18:00 +16°C° 0 mm 2 m/S 742 mmHg 63%
    19:00 +15°C° 0 mm 1 m/S 742 mmHg 69%
    20:00 +14°C° 0 mm 1 m/S 742 mmHg 70%
    21:00 +13°C° 0 mm 1 m/S 743 mmHg 71%
    22:00 +12°C° 0 mm 1 m/S 743 mmHg 72%
    23:00 +12°C° 0 mm 1 m/S 743 mmHg 73%

    übermorgen, 29 April, Sonntag

    Zeit Temperatur Niederschläge Wind Luftdruck Luftfeuchtigkeit
    00:00 +12°C° 0 mm 1 m/S 743 mmHg 73%
    01:00 +11°C° 0 mm 0 m/S 742 mmHg 73%
    02:00 +12°C° 0 mm 1 m/S 742 mmHg 75%
    03:00 +11°C° 0 mm 1 m/S 742 mmHg 76%
    04:00 +11°C° 0 mm 1 m/S 742 mmHg 78%
    05:00 +12°C° 0 mm 1 m/S 742 mmHg 77%
    06:00 +13°C° 0 mm 1 m/S 742 mmHg 77%
    07:00 +13°C° 0 mm 1 m/S 742 mmHg 76%
    08:00 +15°C° 0 mm 2 m/S 741 mmHg 73%
    09:00 +17°C° 0 mm 3 m/S 741 mmHg 71%
    10:00 +19°C° 0 mm 4 m/S 741 mmHg 68%
    11:00 +20°C° 0 mm 4 m/S 740 mmHg 67%
    12:00 +21°C° 0 mm 4 m/S 740 mmHg 66%
    13:00 +23°C° 0 mm 5 m/S 739 mmHg 66%
    14:00 +23°C° 0,1 mm 5 m/S 739 mmHg 66%
    15:00 +23°C° 0,1 mm 5 m/S 738 mmHg 66%
    16:00 +23°C° 0,1 mm 5 m/S 737 mmHg 66%
    17:00 +22°C° 0,2 mm 5 m/S 737 mmHg 71%
    18:00 +21°C° 0,2 mm 5 m/S 736 mmHg 76%
    19:00 +19°C° 0,2 mm 4 m/S 735 mmHg 81%
    20:00 +19°C° 0,2 mm 4 m/S 735 mmHg 85%
    21:00 +18°C° 0,2 mm 4 m/S 734 mmHg 88%
    22:00 +17°C° 0,2 mm 3 m/S 734 mmHg 91%
    23:00 +16°C° 0,1 mm 3 m/S 733 mmHg 92%

    30 April, Montag

    Zeit Temperatur Niederschläge Wind Luftdruck Luftfeuchtigkeit
    00:00 +16°C° 0,1 mm 3 m/S 733 mmHg 93%
    01:00 +14°C° 0,1 mm 3 m/S 733 mmHg 95%
    02:00 +14°C° 0,2 mm 4 m/S 733 mmHg 92%
    03:00 +13°C° 0,2 mm 6 m/S 734 mmHg 90%
    04:00 +12°C° 0,2 mm 7 m/S 734 mmHg 87%
    05:00 +11°C° 0,1 mm 7 m/S 735 mmHg 85%
    06:00 +11°C° 0,1 mm 8 m/S 736 mmHg 82%
    07:00 +10°C° 0,1 mm 8 m/S 736 mmHg 80%
    08:00 +11°C° 0 mm 8 m/S 737 mmHg 75%
    09:00 +11°C° 0 mm 9 m/S 737 mmHg 70%
    10:00 +12°C° 0 mm 9 m/S 738 mmHg 65%
    11:00 +12°C° 0 mm 9 m/S 738 mmHg 63%
    12:00 +13°C° 0 mm 10 m/S 738 mmHg 60%
    13:00 +13°C° 0 mm 10 m/S 739 mmHg 58%
    14:00 +13°C° 0 mm 9 m/S 739 mmHg 57%
    15:00 +13°C° 0 mm 9 m/S 739 mmHg 56%
    16:00 +13°C° 0 mm 9 m/S 739 mmHg 55%
    17:00 +12°C° 0 mm 7 m/S 740 mmHg 59%
    18:00 +11°C° 0 mm 6 m/S 740 mmHg 63%
    19:00 +11°C° 0 mm 4 m/S 740 mmHg 67%
    20:00 +10°C° 0 mm 4 m/S 741 mmHg 68%
    21:00 +8°C° 0 mm 4 m/S 741 mmHg 70%
    22:00 +7°C° 0 mm 4 m/S 742 mmHg 71%
    23:00 +6°C° 0 mm 4 m/S 742 mmHg 73%

    1 Mai, Dienstag

    Zeit Temperatur Niederschläge Wind Luftdruck Luftfeuchtigkeit
    00:00 +7°C° 0 mm 3 m/S 742 mmHg 75%
    01:00 +5°C° 0 mm 3 m/S 742 mmHg 77%
    02:00 +5°C° 0 mm 3 m/S 742 mmHg 79%
    03:00 +5°C° 0 mm 3 m/S 742 mmHg 80%
    04:00 +4°C° 0 mm 4 m/S 742 mmHg 81%
    05:00 +5°C° 0 mm 4 m/S 743 mmHg 77%
    06:00 +6°C° 0 mm 4 m/S 743 mmHg 73%
    07:00 +6°C° 0 mm 5 m/S 743 mmHg 69%
    08:00 +8°C° 0 mm 5 m/S 743 mmHg 64%
    09:00 +9°C° 0 mm 5 m/S 744 mmHg 59%
    10:00 +12°C° 0 mm 5 m/S 744 mmHg 54%
    11:00 +13°C° 0 mm 5 m/S 744 mmHg 52%
    12:00 +14°C° 0 mm 4 m/S 744 mmHg 51%
    13:00 +15°C° 0 mm 4 m/S 744 mmHg 49%
    14:00 +14°C° 0 mm 4 m/S 744 mmHg 52%
    15:00 +14°C° 0 mm 4 m/S 744 mmHg 54%
    16:00 +14°C° 0 mm 3 m/S 744 mmHg 57%
    17:00 +13°C° 0 mm 3 m/S 745 mmHg 63%
    18:00 +13°C° 0 mm 2 m/S 745 mmHg 70%
    19:00 +10°C° 0 mm 2 m/S 745 mmHg 76%
    20:00 +9°C° 0 mm 2 m/S 746 mmHg 79%
    21:00 +8°C° 0 mm 2 m/S 746 mmHg 82%
    22:00 +7°C° 0 mm 2 m/S 746 mmHg 85%
    23:00 +7°C° 0 mm 1 m/S 747 mmHg 86%

    2 Mai, Mittwoch

    Zeit Temperatur Niederschläge Wind Luftdruck Luftfeuchtigkeit
    00:00 +7°C° 0 mm 1 m/S 747 mmHg 87%
    01:00 +6°C° 0 mm 1 m/S 747 mmHg 89%
    02:00 +6°C° 0 mm 1 m/S 748 mmHg 89%
    03:00 +6°C° 0 mm 1 m/S 748 mmHg 89%
    04:00 +6°C° 0 mm 1 m/S 748 mmHg 90%
    05:00 +7°C° 0 mm 1 m/S 748 mmHg 88%
    06:00 +6°C° 0 mm 2 m/S 749 mmHg 86%
    07:00 +7°C° 0 mm 2 m/S 749 mmHg 84%
    08:00 +8°C° 0 mm 2 m/S 749 mmHg 80%
    09:00 +9°C° 0 mm 3 m/S 749 mmHg 77%
    10:00 +10°C° 0 mm 3 m/S 749 mmHg 73%
    11:00 +10°C° 0,2 mm 3 m/S 749 mmHg 72%
    12:00 +11°C° 0,2 mm 3 m/S 749 mmHg 70%
    13:00 +11°C° 0,2 mm 3 m/S 749 mmHg 69%
    14:00 +11°C° 0,4 mm 3 m/S 748 mmHg 72%
    15:00 +10°C° 0,4 mm 3 m/S 748 mmHg 76%
    16:00 +10°C° 0,4 mm 3 m/S 748 mmHg 79%
    17:00 +9°C° 0,3 mm 3 m/S 748 mmHg 80%
    18:00 +9°C° 0,3 mm 3 m/S 748 mmHg 82%
    19:00 +8°C° 0,3 mm 3 m/S 748 mmHg 83%
    20:00 +8°C° 0,1 mm 3 m/S 748 mmHg 82%
    21:00 +8°C° 0,1 mm 2 m/S 748 mmHg 82%
    22:00 +7°C° 0,1 mm 2 m/S 749 mmHg 81%
    23:00 +7°C° 0 mm 3 m/S 749 mmHg 81%
    Mehr zeigen